sat.trackr.live / text

‹ back to catalog

O3B FM7

NORAD 40080 · 2014-038B

PAYLOAD ACTIVE UNKNOWN

§ Identity

Operator
Country
O3B
Launch date
2014-07-10
Launch site
FRGUI
Launch vehicle
Mass (kg)
RCS (m²)
1.40

Purposes: comms

External: N2YO · Heavens-Above · Gunter

§ Orbital elements

Epoch: 2026-09-15T19:15:12.311712Z

Period
287.93 min
Inclination
0.0421°
Eccentricity
0.0002880
Mean motion
5.00115747 rev/d
Perigee alt
8,061.7 km
Apogee alt
8,070.0 km
Semi-major
14,444.0 km
B*
0.0000e+0
RAAN
349.0787°
Arg perigee
145.3176°
Mean anomaly
225.6288°
Rev number
22,241

§ Raw data

O3B FM71 40080U 14038B   26258.80222583 -.00000028  00000+0  00000+0 0  99902 40080   0.0421 349.0787 0002880 145.3176 225.6288  5.00115747222418

JSON: /api/v1/satellites/40080 · /tle

For live sub-satellite position, see the globe view (requires WebGL).

§ Visibility from observer

Set your observer location to see the next 7 days of passes ≥ 10°. The values pass through the URL so the page stays shareable.

No JS? Fill the form by hand. The geolocation button needs JavaScript.